Flag for U.S.A. Weather past 2 weeks in Oberlin, Ohio, U.S.A.

Now
18 °F

Light snow. Ice fog.


Feels Like: 6 °F
Forecast: 11 / 19 °F
Wind: 10 mph from Northeast

Location: Lorain County Regional Airport

Current Time: Jan 27, 2015 at 7:50:33 AM

Latest Report: Jan 27, 2015 at 6:53 AM


Visibility: 4 mi

Pressure: 30.02 "Hg

Humidity: 88%

Dew point: 15 °F

Location of OberlinLocation

Historic Weather in Oberlin — Graph

°F

Oberlin temperature yesterday

Maximum temperature yesterday: 20 °F (at 9:53 AM)
Minimum temperature yesterday: 17 °F (at 9:53 PM)
Average temperature yesterday: 19 °F

Past Weeks' High & Low Weather Summary

 TemperatureHumidityPressure
High45 °F (Jan 17, 3:53 PM)100% (Jan 14, 11:53 AM)30.73 "Hg (Jan 14, 11:53 AM)
Low-12 °F (Jan 14, 6:53 AM)49% (Jan 17, 11:53 PM)29.61 "Hg (Jan 24, 2:53 PM)
Average25 °F82%30.09 "Hg
* Reported Jan 12 6:53 AM — Jan 27 6:53 AM, Oberlin, Weather by CustomWeather, © 2014

Note: Actual official high and low records may vary slightly from our data, if they occured in-between our weather recording intervals... More about our weather records

Advertising

Oberlin weather history for previous 24 hours

 ConditionsComfort  
Time TempWeatherWind HumidityBarometerVisibility
6:53 AM
Jan 27
18 °FLight snow. Ice fog.10 mph88%30.02 "Hg4 mi
5:53 AM18 °FOvercast.7 mph84%30.00 "Hg7 mi
4:57 AM18 °FLight snow. Ice fog.12 mph88%29.94 "Hg3 mi
3:53 AM18 °FOvercast.9 mph88%29.98 "Hg10 mi
2:53 AM18 °FLight snow. Ice fog.8 mph88%29.97 "Hg5 mi
1:53 AM19 °FOvercast.5 mph88%29.96 "Hg7 mi
12:53 AM20 °FLight snow. Ice fog.5 mph89%29.96 "Hg3 mi
11:53 PM
Jan 26
19 °FLight snow. Ice fog.5 mph88%29.96 "Hg2 mi
10:53 PM18 °FOvercast.7 mph80%29.97 "Hg9 mi
9:53 PM17 °FOvercast.3 mph83%29.97 "Hg8 mi
8:53 PM18 °FOvercast.6 mph77%29.97 "Hg9 mi
7:53 PM19 °FOvercast.5 mph71%29.97 "Hg10 mi
6:53 PM19 °FOvercast.8 mph74%29.96 "Hg10 mi
5:53 PM18 °FOvercast.8 mph77%29.94 "Hg8 mi
4:53 PM19 °FLight snow. Overcast.9 mph77%29.93 "Hg2 mi
3:53 PM19 °FLight snow. Overcast.15 mph81%29.91 "Hg2 mi
2:53 PM20 °FLight snow. Overcast.15 mph78%29.89 "Hg3 mi
1:53 PM20 °FLight snow. Overcast.17 mph82%29.88 "Hg2 mi
12:53 PM20 °FIce fog.16 mph85%29.88 "Hg4 mi
11:53 AM20 °FIce fog.16 mph85%29.90 "Hg4 mi
10:53 AM20 °FOvercast.16 mph85%29.91 "Hg10 mi
9:53 AM20 °FOvercast.15 mph85%29.90 "Hg10 mi
8:53 AM19 °FOvercast.14 mph88%29.88 "Hg10 mi
7:53 AM19 °FLight snow. Ice fog.12 mph88%29.87 "Hg6 mi
Weather by CustomWeather, © 2014

See weather overviewHow to use our weather pages